This is the latest recevied weather packets stored in our database for station/object FHDOHA-13. If no packets are shown the sender has not sent any weather packets the latest 10 day(s).
| Time | Temp. | Humidity | Pressure | Rain* | Wind** | Luminosity | Snow |
|---|---|---|---|---|---|---|---|
| 1777587373 | 7.78° C | 62% | 1029.8 hPa | 0 mm | - | - | - |
| 1777586473 | 7.78° C | 62% | 1029.7 hPa | 0 mm | - | - | - |
| 1777585573 | 8.33° C | 59% | 1029.7 hPa | 0 mm | - | - | - |
| 1777584673 | 8.33° C | 58% | 1029.7 hPa | 0 mm | - | - | - |
| 1777583773 | 8.89° C | 59% | 1029.6 hPa | 0 mm | - | - | - |
| 1777582872 | 9.44° C | 57% | 1029.6 hPa | 0 mm | - | - | - |
| 1777581973 | 9.44° C | 55% | 1029.6 hPa | 0 mm | - | - | - |
| 1777581073 | 9.44° C | 56% | 1029.5 hPa | 0 mm | - | - | - |
| 1777580173 | 10.56° C | 53% | 1029.5 hPa | 0 mm | - | - | - |
| 1777579273 | 11.11° C | 49% | 1029.4 hPa | 0 mm | - | - | - |
| 1777578373 | 12.22° C | 46% | 1029.3 hPa | 0 mm | - | - | - |
| 1777577473 | 12.78° C | 42% | 1029.2 hPa | 0 mm | - | - | - |
| 1777576573 | 13.33° C | 39% | 1029.2 hPa | 0 mm | - | - | - |
| 1777575673 | 13.89° C | 39% | 1029.1 hPa | 0 mm | - | - | - |
| 1777574772 | 14.44° C | 38% | 1029 hPa | 0 mm | - | - | - |
| 1777573873 | 15.56° C | 36% | 1027.9 hPa | 0 mm | - | - | - |
| 1777572972 | 18.89° C | 31% | 1027.6 hPa | 0 mm | - | - | - |
| 1777572073 | 20.56° C | 30% | 1027.4 hPa | 0 mm | - | - | - |
| 1777571173 | 19.44° C | 32% | 1027.5 hPa | 0 mm | - | - | - |
| 1777570272 | 16.11° C | 37% | 1027.8 hPa | 0 mm | - | - | - |
| 1777569373 | 16.67° C | 37% | 1027.8 hPa | 0 mm | - | - | - |
| 1777568472 | 16.67° C | 36% | 1027.8 hPa | 0 mm | - | - | - |
| 1777567572 | 16.67° C | 36% | 1027.8 hPa | 0 mm | - | - | - |
| 1777566673 | 17.22° C | 35% | 1027.7 hPa | 0 mm | - | - | - |
| 1777565773 | 17.22° C | 36% | 1027.7 hPa | 0 mm | - | - | - |
* Rain latest hour (hover to see other rain measurements)
** Current wind speed in m/s (hover to see current wind gust speed)